View from above orbital plane
|
View from above satellite
|
Ground track
|
The orbit data is extracted from the following two-line orbital elements,
1 15333U 84106A 21110.51222751 -.00000088 00000-0 -21053-4 0 9997
2 15333 71.0298 33.6874 0021572 234.9924 124.9174 14.14119255886402
Epoch (UTC): | 20 April 2021 12:17:36 |
Eccentricity: | 0.0021572 |
inclination: | 71.0298° |
perigee height: | 830 km |
apogee height: | 861 km |
right ascension of ascending node: | 33.6874° |
argument of perigee: | 234.9924° |
revolutions per day: | 14.14119255 |
mean anomaly at epoch: | 124.9174° |
orbit number at epoch: | 88640 |
The dashed part of the orbit path shows where the satellite is in the earth's shadow,
|
|